GW5385 Weather Reports


Display with metric or nautical units.
time (UTC)temp
F
wind
direction
speed
MPH
gust
MPH
rain 1hr
in
rain 24hr
in
rain mn
in
humidity
%
barometer
mb
20260506001635 48 20 14.0 19.0 0.00 0.00 0.00 33 1020.7
20260506000032 49 347 8.0 21.0 0.00 0.00 0.00 32 1020.6
20260505234554 49 16 17.0 25.0 0.00 0.00 0.00 32 1020.7
20260505233037 49 338 8.0 20.0 0.00 0.00 0.00 32 1020.7
20260505231532 49 337 12.0 23.0 0.00 0.00 0.00 32 1020.7
20260505224558 49 12 14.0 20.0 0.00 0.00 0.00 32 1020.7
20260505223055 49 323 12.0 18.0 0.00 0.00 0.00 32 1020.8
20260505221555 49 327 11.0 19.0 0.00 0.00 0.00 31 1020.8
20260505220053 49 327 8.0 20.0 0.00 0.00 0.00 31 1020.7
20260505214613 49 338 12.0 20.0 0.00 0.00 0.00 30 1020.6
20260505213059 49 332 11.0 22.0 0.00 0.00 0.00 32 1020.6
20260505211549 49 352 10.0 23.0 0.00 0.00 0.00 33 1020.7
20260505210056 49 5 15.0 21.0 0.00 0.00 0.00 32 1020.7
20260505204556 49 311 7.0 24.0 0.00 0.00 0.00 34 1020.9
20260505203051 49 328 12.0 22.0 0.00 0.00 0.00 35 1021.0
20260505201545 49 345 14.0 21.0 0.00 0.00 0.00 35 1021.1
20260505200058 48 340 14.0 24.0 0.00 0.00 0.00 35 1021.2
20260505194548 49 4 14.0 22.0 0.00 0.00 0.00 35 1021.2
20260505193010 49 338 12.0 22.0 0.00 0.00 0.00 35 1021.1
20260505191509 47 310 13.0 23.0 0.00 0.00 0.00 33 1021.2
20260505190005 48 10 12.0 25.0 0.00 0.00 0.00 37 1021.3
20260505184505 48 332 13.0 22.0 0.00 0.00 0.00 37 1021.2
20260505183010 48 328 11.0 21.0 0.00 0.00 0.00 37 1021.3
20260505181503 47 350 9.0 19.0 0.00 0.00 0.00 37 1021.3
20260505180109 47 331 9.0 20.0 0.00 0.00 0.00 39 1021.3
20260505174605 47 326 11.0 18.0 0.00 0.00 0.00 40 1021.2
20260505173057 46 303 11.0 21.0 0.00 0.00 0.00 39 1021.3
20260505171556 46 348 10.0 24.0 0.00 0.00 0.00 45 1021.4
20260505170051 46 314 11.0 24.0 0.00 0.00 0.00 43 1021.4
20260505164550 44 347 11.0 19.0 0.00 0.00 0.00 46 1021.5
20260505163052 44 342 11.0 19.0 0.00 0.00 0.00 45 1021.6
20260505161549 44 345 8.0 16.0 0.00 0.00 0.00 51 1021.6
20260505153041 42 356 8.0 13.0 0.00 0.00 0.00 52 1021.8
20260505151535 40 324 5.0 13.0 0.00 0.00 0.00 59 1021.7
20260505124515 34 304 0.0 3.0 0.00 0.00 0.00 74 1021.1
20260505123015 33 303 0.0 3.0 0.00 0.00 0.00 74 1020.9
20260505121514 32 312 0.0 3.0 0.00 0.00 0.00 75 1020.9
20260505120016 30 323 0.0 1.0 0.00 0.00 0.00 76 1020.8
20260505114507 31 303 0.0 0.0 0.00 0.00 0.00 72 1020.9
20260505113003 33 328 0.0 1.0 0.00 0.00 0.00 68 1020.8
20260505111600 34 342 2.0 6.0 0.00 0.00 0.00 67 1020.8
20260505101547 37 354 4.0 7.0 0.00 0.00 0.00 58 1020.5
20260505100047 36 16 4.0 7.0 0.00 0.00 0.00 59 1020.5
20260505094514 37 15 3.0 4.0 0.00 0.00 0.00 62 1020.4
20260505093023 37 344 2.0 6.0 0.00 0.00 0.00 61 1020.2
20260505091507 37 22 4.0 9.0 0.00 0.00 0.00 60 1020.4
20260505090005 36 30 3.0 5.0 0.00 0.00 0.00 60 1020.2
20260505084505 37 42 1.0 2.0 0.00 0.00 0.00 58 1020.2
20260505083008 37 15 0.0 0.0 0.00 0.00 0.00 58 1020.2
20260505081501 38 346 0.0 1.0 0.00 0.00 0.00 57 1020.3
20260505080113 39 338 2.0 4.0 0.00 0.00 0.00 55 1020.2
20260505074607 39 9 3.0 6.0 0.00 0.00 0.00 56 1020.0
20260505073058 40 360 4.0 9.0 0.00 0.00 0.00 56 1020.1
20260505071558 40 352 2.0 5.0 0.00 0.00 0.00 54 1020.0
20260505070052 40 342 4.0 8.0 0.00 0.00 0.00 53 1020.0
20260505064547 38 339 2.0 6.0 0.00 0.00 0.00 53 1020.0
20260505063104 37 16 3.0 5.0 0.00 0.00 0.00 56 1020.0
20260505061604 35 335 0.0 3.0 0.00 0.00 0.00 57 1019.7
20260505060034 36 34 2.0 4.0 0.00 0.00 0.00 56 1019.8
20260505054533 36 48 4.0 6.0 0.00 0.00 0.00 56 1019.8
20260505053039 34 3 3.0 4.0 0.00 0.00 0.00 59 1019.7
20260505051508 33 334 1.0 3.0 0.00 0.00 0.00 62 1019.6
20260505041552 34 287 0.0 1.0 0.00 0.00 0.00 54 1019.7
20260505040046 37 353 1.0 2.0 0.00 0.00 0.00 52 1019.5
20260505034540 38 276 0.0 2.0 0.00 0.00 0.00 51 1019.4
20260505033037 40 37 0.0 2.0 0.00 0.00 0.00 49 1019.1
20260505031532 41 34 2.0 7.0 0.00 0.00 0.00 47 1018.9
20260505030030 43 42 6.0 10.0 0.00 0.00 0.00 45 1018.7
20260505024523 44 35 9.0 16.0 0.00 0.00 0.00 44 1018.4
20260505023020 45 27 13.0 18.0 0.00 0.00 0.00 42 1018.3
20260505021521 47 34 14.0 20.0 0.00 0.00 0.00 39 1018.0
20260505021518 47 42 14.0 20.0 0.00 0.00 0.00 39 1018.0
20260505020017 48 39 15.0 21.0 0.00 0.00 0.00 37 1017.8
20260505014518 50 27 16.0 22.0 0.00 0.00 0.00 33 1017.6
20260505013013 51 32 9.0 20.0 0.00 0.00 0.00 28 1017.4
20260505011517 52 358 10.0 18.0 0.00 0.00 0.00 28 1017.2
20260505010013 53 339 13.0 24.0 0.00 0.00 0.00 24 1017.3
20260505004511 53 342 11.0 25.0 0.00 0.00 0.00 25 1017.2
20260505003040 54 4 15.0 23.0 0.00 0.00 0.00 23 1017.1